When you browse on this site, cookies collect data to enhance your experience and personalize the content and advertising you see.
Visit our Privacy Policy to learn more. By continuing to use the site, you agree to this use of cookies and data.
  • In Hungary
  • List of Countries
  • For 7 days
  • Water Temperature
  • Weather Map
  • News
  • Weather Widgets
  • user-avatar
    Login

    Hourly Weather Gornostaevka

    Today, 18 February, Tuesday

    Time Temperature Precipitation Wind Pressure Humidity
    00:00 -1°C° 0 mm 7 mps 746 mmHg 86%
    01:00 -1°C° 0.3 mm 7 mps 746 mmHg 89%
    02:00 -1°C° 0.3 mm 7 mps 746 mmHg 93%
    03:00 -2°C° 0.3 mm 6 mps 747 mmHg 96%
    04:00 -2°C° 0.7 mm 6 mps 746 mmHg 96%
    05:00 -2°C° 0.7 mm 6 mps 746 mmHg 97%
    06:00 -2°C° 0.7 mm 6 mps 746 mmHg 98%
    07:00 -2°C° 0.3 mm 6 mps 746 mmHg 98%
    08:00 -1°C° 0.3 mm 5 mps 746 mmHg 99%
    09:00 0°C° 0.3 mm 5 mps 746 mmHg 99%
    10:00 0°C° 0.1 mm 5 mps 746 mmHg 99%
    11:00 0°C° 0.1 mm 5 mps 746 mmHg 99%
    12:00 0°C° 0.1 mm 5 mps 746 mmHg 99%
    13:00 0°C° 0.2 mm 4 mps 746 mmHg 99%
    14:00 0°C° 0.2 mm 4 mps 746 mmHg 99%
    15:00 +1°C° 0.2 mm 3 mps 745 mmHg 99%
    16:00 0°C° 0.8 mm 3 mps 745 mmHg 99%
    17:00 0°C° 0.8 mm 3 mps 745 mmHg 98%
    18:00 0°C° 0.8 mm 3 mps 744 mmHg 98%
    19:00 0°C° 0.7 mm 3 mps 744 mmHg 98%
    20:00 0°C° 0.7 mm 3 mps 744 mmHg 98%
    21:00 0°C° 0.7 mm 3 mps 744 mmHg 98%
    22:00 0°C° 0.2 mm 3 mps 743 mmHg 98%
    23:00 0°C° 0.2 mm 3 mps 743 mmHg 98%

    Tomorrow, 19 February, Wednesday

    Time Temperature Precipitation Wind Pressure Humidity
    00:00 0°C° 0.2 mm 3 mps 743 mmHg 98%
    01:00 0°C° 0.1 mm 3 mps 743 mmHg 98%
    02:00 0°C° 0.1 mm 3 mps 743 mmHg 98%
    03:00 0°C° 0.1 mm 3 mps 743 mmHg 98%
    04:00 0°C° 0 mm 3 mps 742 mmHg 98%
    05:00 0°C° 0 mm 3 mps 742 mmHg 98%
    06:00 0°C° 0 mm 3 mps 742 mmHg 98%
    07:00 -1°C° 0 mm 4 mps 743 mmHg 97%
    08:00 -1°C° 0 mm 4 mps 743 mmHg 97%
    09:00 -1°C° 0 mm 5 mps 743 mmHg 96%
    10:00 -1°C° 0 mm 5 mps 743 mmHg 96%
    11:00 -1°C° 0 mm 5 mps 743 mmHg 97%
    12:00 0°C° 0 mm 5 mps 743 mmHg 97%
    13:00 0°C° 0 mm 5 mps 744 mmHg 94%
    14:00 0°C° 0 mm 5 mps 744 mmHg 92%
    15:00 0°C° 0 mm 4 mps 744 mmHg 89%
    16:00 -1°C° 0 mm 4 mps 744 mmHg 91%
    17:00 -1°C° 0 mm 4 mps 745 mmHg 92%
    18:00 -1°C° 0 mm 4 mps 745 mmHg 94%
    19:00 -1°C° 0 mm 4 mps 745 mmHg 93%
    20:00 -1°C° 0 mm 4 mps 745 mmHg 92%
    21:00 0°C° 0 mm 3 mps 746 mmHg 91%
    22:00 0°C° 0 mm 3 mps 746 mmHg 89%
    23:00 0°C° 0 mm 3 mps 746 mmHg 88%

    Day after tomorrow, 20 February, Thursday

    Time Temperature Precipitation Wind Pressure Humidity
    00:00 0°C° 0 mm 3 mps 746 mmHg 86%
    01:00 -1°C° 0 mm 3 mps 746 mmHg 86%
    02:00 -1°C° 0 mm 3 mps 747 mmHg 87%
    03:00 -1°C° 0 mm 3 mps 747 mmHg 87%
    04:00 -1°C° 0 mm 3 mps 747 mmHg 88%
    05:00 -1°C° 0 mm 3 mps 747 mmHg 88%
    06:00 -2°C° 0 mm 3 mps 747 mmHg 89%
    07:00 -1°C° 0 mm 3 mps 748 mmHg 88%
    08:00 -1°C° 0 mm 3 mps 748 mmHg 88%
    09:00 -1°C° 0 mm 3 mps 749 mmHg 87%
    10:00 -1°C° 0 mm 3 mps 749 mmHg 86%
    11:00 0°C° 0 mm 3 mps 749 mmHg 85%
    12:00 +1°C° 0 mm 3 mps 749 mmHg 84%
    13:00 +1°C° 0 mm 3 mps 750 mmHg 84%
    14:00 +2°C° 0 mm 2 mps 750 mmHg 85%
    15:00 +2°C° 0 mm 2 mps 750 mmHg 86%
    16:00 +1°C° 0 mm 2 mps 750 mmHg 87%
    17:00 -1°C° 0 mm 2 mps 750 mmHg 88%
    18:00 -1°C° 0 mm 2 mps 750 mmHg 89%
    19:00 -2°C° 0 mm 2 mps 750 mmHg 89%
    20:00 -2°C° 0 mm 2 mps 751 mmHg 88%
    21:00 -2°C° 0 mm 2 mps 751 mmHg 88%
    22:00 -2°C° 0 mm 2 mps 752 mmHg 88%
    23:00 -2°C° 0 mm 2 mps 752 mmHg 89%

    21 February, Friday

    Time Temperature Precipitation Wind Pressure Humidity
    00:00 -2°C° 0 mm 2 mps 752 mmHg 89%
    01:00 -1°C° 0 mm 2 mps 752 mmHg 90%
    02:00 -1°C° 0 mm 2 mps 752 mmHg 90%
    03:00 +1°C° 0 mm 1 mps 752 mmHg 90%
    04:00 -1°C° 0 mm 2 mps 752 mmHg 90%
    05:00 -1°C° 0 mm 2 mps 752 mmHg 89%
    06:00 -1°C° 0 mm 2 mps 752 mmHg 89%
    07:00 -1°C° 0 mm 2 mps 752 mmHg 89%
    08:00 -1°C° 0 mm 2 mps 752 mmHg 89%
    09:00 -1°C° 0 mm 2 mps 753 mmHg 89%
    16:00 0°C° 0 mm 3 mps 752 mmHg 89%
    17:00 -1°C° 0 mm 3 mps 752 mmHg 91%
    18:00 -1°C° 0 mm 2 mps 751 mmHg 93%
    19:00 -2°C° 0 mm 3 mps 752 mmHg 93%
    20:00 -2°C° 0 mm 3 mps 752 mmHg 93%
    21:00 -2°C° 0 mm 3 mps 752 mmHg 93%
    22:00 -4°C° 0 mm 3 mps 752 mmHg 93%
    23:00 -4°C° 0 mm 3 mps 752 mmHg 93%

    22 February, Saturday

    Time Temperature Precipitation Wind Pressure Humidity
    00:00 -4°C° 0 mm 3 mps 752 mmHg 93%
    01:00 -4°C° 0 mm 3 mps 752 mmHg 93%
    02:00 -4°C° 0 mm 3 mps 752 mmHg 92%
    03:00 -5°C° 0 mm 3 mps 752 mmHg 91%
    04:00 -5°C° 0 mm 3 mps 752 mmHg 91%
    05:00 -5°C° 0 mm 3 mps 751 mmHg 91%
    06:00 -5°C° 0 mm 3 mps 751 mmHg 91%
    07:00 -5°C° 0 mm 3 mps 751 mmHg 90%
    08:00 -5°C° 0 mm 3 mps 752 mmHg 90%
    09:00 -5°C° 0 mm 3 mps 752 mmHg 90%
    10:00 -4°C° 0 mm 4 mps 752 mmHg 88%
    11:00 -4°C° 0 mm 4 mps 752 mmHg 87%
    12:00 -3°C° 0 mm 4 mps 752 mmHg 86%
    13:00 -3°C° 0 mm 4 mps 751 mmHg 85%
    14:00 -2°C° 0 mm 4 mps 751 mmHg 84%
    15:00 -2°C° 0 mm 5 mps 751 mmHg 84%
    16:00 -2°C° 0 mm 4 mps 750 mmHg 86%
    17:00 -3°C° 0 mm 4 mps 750 mmHg 88%
    18:00 -3°C° 0 mm 4 mps 749 mmHg 91%
    19:00 -3°C° 0 mm 4 mps 749 mmHg 91%
    20:00 -5°C° 0 mm 5 mps 749 mmHg 91%
    21:00 -5°C° 0 mm 5 mps 748 mmHg 92%
    22:00 -5°C° 0 mm 5 mps 748 mmHg 91%
    23:00 -5°C° 0 mm 6 mps 747 mmHg 91%

    23 February, Sunday

    Time Temperature Precipitation Wind Pressure Humidity
    00:00 -5°C° 0 mm 6 mps 746 mmHg 91%
    01:00 -4°C° 0 mm 7 mps 745 mmHg 91%
    02:00 -4°C° 0 mm 7 mps 744 mmHg 90%
    03:00 -5°C° 0 mm 8 mps 742 mmHg 89%
    04:00 -5°C° 0 mm 8 mps 741 mmHg 89%
    05:00 -5°C° 0 mm 9 mps 740 mmHg 89%
    06:00 -5°C° 0 mm 9 mps 738 mmHg 89%
    07:00 -4°C° 0.7 mm 10 mps 737 mmHg 91%
    08:00 -4°C° 0.7 mm 10 mps 736 mmHg 92%
    09:00 -4°C° 0.7 mm 10 mps 735 mmHg 94%
    10:00 -4°C° 0.5 mm 10 mps 734 mmHg 95%
    11:00 -4°C° 0.5 mm 9 mps 733 mmHg 96%
    12:00 -4°C° 0.5 mm 9 mps 732 mmHg 97%
    13:00 -4°C° 0.6 mm 8 mps 731 mmHg 97%
    14:00 -2°C° 0.6 mm 7 mps 731 mmHg 97%
    15:00 -2°C° 0.6 mm 6 mps 730 mmHg 97%
    16:00 -1°C° 0.1 mm 5 mps 731 mmHg 93%
    17:00 -2°C° 0.1 mm 5 mps 731 mmHg 89%
    18:00 -2°C° 0.1 mm 5 mps 731 mmHg 86%
    19:00 -2°C° 0.1 mm 5 mps 731 mmHg 89%
    20:00 -3°C° 0.1 mm 6 mps 732 mmHg 92%
    21:00 -3°C° 0.1 mm 7 mps 732 mmHg 96%
    22:00 -3°C° 0.1 mm 7 mps 732 mmHg 93%
    23:00 -3°C° 0.1 mm 6 mps 732 mmHg 90%
    Show more